Regional Weather Roundup
Issued by NWS

Home | Current Version | Previous Version | Text Only | Print | Product List | Glossary Off
Versions: 1 2 3 4 5 6 7 8 9 10 11 12 13 14 15 16 17 18 19 20 21 22 23 24 25 26 27 28 29 30 31 32 33 34 35 36 37 38 39 40 41 42 43 44 45 46 47 48 49 50

000
ASUS43 KDMX 281006
RWRIA

WEATHER ROUNDUP FOR IOWA
NATIONAL WEATHER SERVICE DES MOINES IA
500 AM CDT TUE MAR 28 2017

NOTE: "FAIR" INDICATES FEW OR NO CLOUDS BELOW 12,000 FEET WITH NO
SIGNIFICANT WEATHER AND/OR OBSTRUCTIONS TO VISIBILITY.

* - THESE STATIONS ARE NOT NWS STATIONS...THUS NOT UNDER NWS
QUALITY CONTROL.  THEY ALSO DO NOT REPORT WEATHER SUCH
AS PRECIPITATION OR FOG.

IAZ001>003-012>014-020>022-031>034-043>046-281100-
   NORTHWEST IOWA

CITY           SKY/WX    TMP DP  RH WIND       PRES   REMARKS
CARROLL *      CLOUDY    41  41 100 N6        30.04S
CHEROKEE *     CLEAR     31  31 100 CALM      30.06R
DENISON *      CLOUDY    39  39 100 CALM      30.07R
LE MARS *      CLOUDY    32  32 100 CALM      30.07S
ORANGE CITY *  CLEAR     36  36 100 CALM      30.06S
SHELDON *      PTCLDY    30  30 100 CALM      30.05R FOG
SIOUX CITY     FOG       30  30 100 NW3       30.06F VSB 3/4
SPENCER        FOG       29  29 100 CALM      30.05F VSB 1/2
STORM LAKE *   FOG       37  37 100 N5        30.05R VSB 1/4 WCI  34
$$

IAZ055>058-069>071-079>083-090>094-281100-
   SOUTHWEST IOWA

CITY           SKY/WX    TMP DP  RH WIND       PRES   REMARKS
ATLANTIC *     CLOUDY    45  39  81 CALM      30.05R
AUDUBON *      CLOUDY    45  41  87 CALM      30.05R
CLARINDA *     CLOUDY    45  45 100 N7        30.06S
COUNCIL BLFS * CLOUDY    37  37 100 NE7       30.04S WCI  32
CRESTON *      CLOUDY    45  41  87 N5        30.05R
HARLAN  *      CLOUDY    45  45 100 CALM      30.08R
LAMONI         CLOUDY    46  42  86 N3        30.02F
RED OAK *      CLOUDY    46  41  81 NE5       30.05R
SHENANDOAH *   CLOUDY    46  43  87 NE6       30.04S
$$

IAZ047>049-059>061-072>074-084-281100-
   CENTRAL IOWA

CITY           SKY/WX    TMP DP  RH WIND       PRES   REMARKS
AMES           CLOUDY    45  44  97 N6        30.04S
ANKENY *       CLOUDY    46  41  81 CALM      30.05S
BOONE *        CLOUDY    45  45 100 N7        30.04R
CHARITON *     CLOUDY    45  43  93 CALM      30.03S
DES MOINES     CLOUDY    47  41  80 CALM      30.04S
GRINNELL*      CLOUDY    45  42  89 NW6       30.04S
MARSHALLTOWN   CLOUDY    45  43  93 N6        30.03S
NEWTON *       CLOUDY    45  43  93 N3        30.03R
PELLA *        CLOUDY    46  41  85 CALM      30.04S
PERRY *        CLOUDY    45  43  93 N5        30.04S
$$

IAZ004>006-015-016-023>025-035-036-281100-
   NORTH CENTRAL IOWA

CITY           SKY/WX    TMP DP  RH WIND       PRES   REMARKS
ALGONA *       FOG       32  32 100 CALM      30.06S VSB 1/4
CLARION *      FOG       32  32 100 CALM      30.06S VSB 1/4
ESTHERVILLE    CLEAR     33  33 100 NW5       30.05S WCI  29
FORT DODGE *   CLOUDY    34  30  86 CALM      30.06S VSB 1/2
MASON CITY     CLOUDY    32  31  96 CALM      30.07S
FOREST CITY *  FOG       28  27  93 CALM      30.06S VSB 1/2
WEBSTER CITY * CLOUDY    41  39  93 N6        30.04R
IOWA FALLS *   CLOUDY    44  42  91 CALM      30.06R
$$

IAZ007>011-017>019-026>030-037>042-050>054-066-281100-
   NORTHEAST IOWA

CITY           SKY/WX    TMP DP  RH WIND       PRES   REMARKS
CEDAR RAPIDS   CLOUDY    45  45 100 N5        30.02S
CHARLES CITY * CLOUDY    43  43 100 N6        30.06S
CLINTON *      CLOUDY    46  45  96 N7        30.03S
DECORAH *      CLOUDY    43  39  87 CALM      30.05R
DUBUQUE        CLOUDY    45  44  97 CALM      30.03R FOG
MONTICELLO *   CLOUDY    45  45 100 N6        30.04R
OELWEIN *      CLOUDY    43  43 100 NE8       30.05S
WATERLOO       CLOUDY    44  42  93 N3        30.04F
$$

IAZ064-065-067-068-078-281100-
   EAST CENTRAL IOWA

CITY           SKY/WX    TMP DP  RH WIND       PRES   REMARKS
DAVENPORT      CLOUDY    47  44  90 N5        30.03R
IOWA CITY      CLOUDY    49  44  83 N8        30.04R
MUSCATINE *    CLOUDY    48  45  87 CALM      30.03S
QUAD CITIES    CLOUDY    49  44  83 CALM      30.02R
$$

IAZ062-063-075>077-085>089-095>099-281100-
   SOUTHEAST IOWA

CITY           SKY/WX    TMP DP  RH WIND       PRES   REMARKS
BURLINGTON     CLOUDY    49  47  93 N6        30.01R
FAIRFIELD *    CLOUDY    46  46 100 NW5       30.02S FOG
FORT MADISON * CLOUDY    48  46  93 CALM      30.03R FOG
KEOKUK *       CLOUDY    48  48 100 N5        30.01S FOG
OSKALOOSA *    CLOUDY    45  42  89 NW5       30.03R
CENTERVILLE *  CLOUDY    45  45 100 CALM      30.05R
OTTUMWA        CLOUDY    46  44  93 NW7       30.02S
WASHINGTON *   CLOUDY    46  46 100 N5        30.03S
$$

ABBREVIATIONS USED IN REMARKS
   TC - TEMPERATURES IN CELSIUS
  WCI - WIND CHILL INDEX
   HX - HEAT INDEX
  VSB - VISIBILITY
$$




USA.gov is the U.S. government's official web portal to all federal, state and local government web resources and services.